Latest Weather Observations for Little Bay

IDN60801

Issued at 6:04 pm EDT Sunday 1 February 2015 (issued every 30 minutes, with the page automatically refreshed every 10 minutes)

About weather observations | Map of weather stations | Latest weather observations for NSW | Other Formats
Station Details ID: 066051 Name: LITTLE BAY (THE COAST GOLF CLUB) Lat: -33.98 Lon: 151.25 Height: 22.0 m
Data from the previous 72 hours. | See also: Recent months for locations in New South Wales
Date/Time
EDT
Temp
°C
App
Temp
°C
Dew
Point
Rel
Hum
%
Delta-T
°C
Wind Press
QNH
hPa
Press
MSL
hPa
Rain
since 9 am
mm
Dir
 
Spd
km/h
Gust
km/h
Spd
kts
Gust
kts
01/06:00pm - - - - - SSE 20 24 11 13 - - -
01/05:30pm - - - - - SSE 20 26 11 14 - - -
01/05:00pm - - - - - SSE 24 32 13 17 - - -
01/04:30pm - - - - - ESE 11 19 6 10 - - -
01/04:00pm - - - - - E 19 24 10 13 - - -
01/03:30pm - - - - - ESE 19 33 10 18 - - -
01/03:00pm - - - - - SSE 22 28 12 15 - - -
01/02:30pm - - - - - SSE 20 26 11 14 - - -
01/02:00pm - - - - - S 20 26 11 14 - - -
01/01:30pm - - - - - S 20 26 11 14 - - -
01/01:00pm - - - - - SSE 19 28 10 15 - - -
01/12:30pm - - - - - SSE 19 24 10 13 - - -
01/12:00pm - - - - - SSE 19 24 10 13 - - -
01/11:30am - - - - - S 20 28 11 15 - - -
01/11:00am - - - - - S 20 28 11 15 - - -
01/10:30am - - - - - SSW 20 26 11 14 - - -
01/10:00am - - - - - SSW 19 24 10 13 - - -
01/09:30am - - - - - SSW 19 24 10 13 - - -
01/09:00am - - - - - S 17 24 9 13 - - -
01/08:30am - - - - - SSW 15 20 8 11 - - -
01/08:00am - - - - - SSW 13 20 7 11 - - -
01/07:30am - - - - - SSW 15 20 8 11 - - -
01/07:00am - - - - - SSW 17 22 9 12 - - -
01/06:30am - - - - - SSW 15 22 8 12 - - -
01/06:00am - - - - - SSW 15 19 8 10 - - -
01/05:30am - - - - - SSW 13 19 7 10 - - -
01/05:00am - - - - - SSW 11 15 6 8 - - -
01/04:30am - - - - - SSW 11 15 6 8 - - -
01/04:00am - - - - - SSW 11 15 6 8 - - -
01/03:30am - - - - - SSW 13 17 7 9 - - -
01/03:00am - - - - - SSW 11 17 6 9 - - -
01/02:30am - - - - - SSW 9 13 5 7 - - -
01/02:00am - - - - - SSW 9 13 5 7 - - -
01/01:30am - - - - - SW 7 9 4 5 - - -
01/01:00am - - - - - CALM 0 0 0 0 - - -
01/12:30am - - - - - CALM 0 0 0 0 - - -
01/12:00am - - - - - CALM 0 0 0 0 - - -
 
Date/Time
EDT
Temp
°C
App
Temp
°C
Dew
Point
Rel
Hum
%
Delta-T
°C
Wind Press
QNH
hPa
Press
MSL
hPa
Rain
since 9 am
mm
Dir
 
Spd
km/h
Gust
km/h
Spd
kts
Gust
kts
31/11:30pm - - - - - CALM 0 0 0 0 - - -
31/11:00pm - - - - - S 2 4 1 2 - - -
31/10:30pm - - - - - SE 7 9 4 5 - - -
31/10:00pm - - - - - SE 9 11 5 6 - - -
31/09:30pm - - - - - SE 9 11 5 6 - - -
31/09:00pm - - - - - SE 9 11 5 6 - - -
31/08:30pm - - - - - SE 11 15 6 8 - - -
31/08:00pm - - - - - SSE 7 9 4 5 - - -
31/07:30pm - - - - - SE 9 11 5 6 - - -
31/07:00pm - - - - - SE 13 15 7 8 - - -
31/06:30pm - - - - - SE 11 13 6 7 - - -
31/06:00pm - - - - - SE 13 15 7 8 - - -
31/05:30pm - - - - - SE 13 15 7 8 - - -
31/05:00pm - - - - - SE 15 19 8 10 - - -
31/04:30pm - - - - - SE 13 17 7 9 - - -
31/04:00pm - - - - - ESE 13 17 7 9 - - -
31/03:30pm - - - - - ESE 11 15 6 8 - - -
31/03:00pm - - - - - ESE 13 17 7 9 - - -
31/02:30pm - - - - - ESE 11 15 6 8 - - -
31/02:00pm - - - - - SE 15 20 8 11 - - -
31/01:30pm - - - - - SE 15 20 8 11 - - -
31/01:00pm - - - - - SE 15 17 8 9 - - -
31/12:30pm - - - - - SSE 15 19 8 10 - - -
31/12:00pm - - - - - SE 13 17 7 9 - - -
31/11:30am - - - - - SSE 15 19 8 10 - - -
31/11:00am - - - - - SSE 13 19 7 10 - - -
31/10:30am - - - - - SSE 11 15 6 8 - - -
31/10:00am - - - - - S 7 11 4 6 - - -
31/09:30am - - - - - SSW 6 9 3 5 - - -
31/09:00am - - - - - WSW 6 9 3 5 - - -
31/08:30am - - - - - WSW 7 9 4 5 - - -
31/08:00am - - - - - WSW 6 9 3 5 - - -
31/07:30am - - - - - WNW 7 9 4 5 - - -
31/07:00am - - - - - WNW 6 9 3 5 - - -
31/06:30am - - - - - W 6 11 3 6 - - -
31/06:00am - - - - - W 6 7 3 4 - - -
31/05:30am - - - - - WSW 9 11 5 6 - - -
31/05:00am - - - - - WSW 9 9 5 5 - - -
31/04:30am - - - - - SW 7 9 4 5 - - -
31/04:00am - - - - - WSW 7 9 4 5 - - -
31/03:30am - - - - - WSW 9 11 5 6 - - -
31/03:00am - - - - - SW 7 13 4 7 - - -
31/02:30am - - - - - WSW 9 11 5 6 - - -
31/02:00am - - - - - WSW 7 9 4 5 - - -
31/01:30am - - - - - WSW 11 15 6 8 - - -
31/01:00am - - - - - WSW 7 11 4 6 - - -
31/12:30am - - - - - SSW 13 22 7 12 - - -
31/12:00am - - - - - SSW 15 24 8 13 - - -
 
Date/Time
EDT
Temp
°C
App
Temp
°C
Dew
Point
Rel
Hum
%
Delta-T
°C
Wind Press
QNH
hPa
Press
MSL
hPa
Rain
since 9 am
mm
Dir
 
Spd
km/h
Gust
km/h
Spd
kts
Gust
kts
30/11:30pm - - - - - SSW 20 30 11 16 - - -
30/11:00pm - - - - - SSW 22 30 12 16 - - -
30/10:30pm - - - - - S 22 32 12 17 - - -
30/10:00pm - - - - - S 24 39 13 21 - - -
30/09:30pm - - - - - S 26 35 14 19 - - -
30/09:00pm - - - - - S 24 33 13 18 - - -
30/08:30pm - - - - - S 24 33 13 18 - - -
30/08:00pm - - - - - S 24 35 13 19 - - -
30/07:30pm - - - - - S 24 35 13 19 - - -
30/07:00pm - - - - - S 22 33 12 18 - - -
30/06:30pm - - - - - S 19 26 10 14 - - -
30/06:00pm - - - - - S 15 20 8 11 - - -
30/05:30pm - - - - - S 15 19 8 10 - - -
30/05:00pm - - - - - SSE 13 19 7 10 - - -
30/04:30pm - - - - - SSE 17 19 9 10 - - -
30/04:00pm - - - - - SSE 17 24 9 13 - - -
30/03:30pm - - - - - SSE 20 26 11 14 - - -
30/03:00pm - - - - - SSE 19 24 10 13 - - -
30/02:30pm - - - - - S 20 28 11 15 - - -
30/02:00pm - - - - - S 26 35 14 19 - - -
30/01:30pm - - - - - S 28 39 15 21 - - -
30/01:00pm - - - - - SSW 30 43 16 23 - - -
30/12:30pm - - - - - S 28 35 15 19 - - -
30/12:00pm - - - - - S 22 32 12 17 - - -
30/11:30am - - - - - S 26 33 14 18 - - -
30/11:00am - - - - - SSW 24 33 13 18 - - -
30/10:30am - - - - - WSW 13 20 7 11 - - -
30/10:00am - - - - - SW 17 30 9 16 - - -
30/09:30am - - - - - W 13 20 7 11 - - -
30/09:00am - - - - - W 17 24 9 13 - - -
30/08:30am - - - - - W 17 22 9 12 - - -
30/08:00am - - - - - W 17 24 9 13 - - -
30/07:30am - - - - - W 15 24 8 13 - - -
30/07:00am - - - - - W 15 20 8 11 - - -
30/06:30am - - - - - W 11 17 6 9 - - -
30/06:00am - - - - - W 13 20 7 11 - - -
30/05:30am - - - - - W 11 19 6 10 - - -
30/05:00am - - - - - W 9 15 5 8 - - -
30/04:30am - - - - - W 9 13 5 7 - - -
30/04:00am - - - - - WSW 9 13 5 7 - - -
30/03:30am - - - - - W 11 17 6 9 - - -
30/03:00am - - - - - W 13 19 7 10 - - -
30/02:30am - - - - - W 7 13 4 7 - - -
30/02:00am - - - - - WSW 9 15 5 8 - - -
30/01:30am - - - - - WSW 13 19 7 10 - - -
30/01:00am - - - - - WSW 9 15 5 8 - - -
30/12:30am - - - - - WSW 13 19 7 10 - - -
30/12:00am - - - - - SW 24 43 13 23 - - -
 
Date/Time
EDT
Temp
°C
App
Temp
°C
Dew
Point
Rel
Hum
%
Delta-T
°C
Wind Press
QNH
hPa
Press
MSL
hPa
Rain
since 9 am
mm
Dir
 
Spd
km/h
Gust
km/h
Spd
kts
Gust
kts
29/11:30pm - - - - - SSW 28 39 15 21 - - -
29/11:00pm - - - - - SSW 30 43 16 23 - - -
29/10:30pm - - - - - SSW 32 44 17 24 - - -
29/10:00pm - - - - - SSW 30 44 16 24 - - -
29/09:30pm - - - - - SSW 32 46 17 25 - - -
29/09:00pm - - - - - SSW 33 50 18 27 - - -
29/08:30pm - - - - - SSW 37 50 20 27 - - -
29/08:00pm - - - - - SSW 35 50 19 27 - - -
29/07:30pm - - - - - S 37 46 20 25 - - -
29/07:00pm - - - - - S 37 50 20 27 - - -
29/06:44pm - - - - - S 37 56 20 30 - - -
29/06:30pm - - - - - S 37 50 20 27 - - -

Other Formats:

Comma delimited format used in spreadsheet applications
http://www.bom.gov.au/fwo/IDN60801/IDN60801.94780.axf

JavaScript Object Notation format (JSON) in row-major order
http://www.bom.gov.au/fwo/IDN60801/IDN60801.94780.json